Weather History for Fairbanks Ft. Wainwright, AK

Change the Weather History Date:

Tuesday, November 20, 2012

  Actual Average Record
Temperature  
Mean Temperature -10 °F -  
Max Temperature 3 °F 7 °F 35 °F (2007)
Min Temperature -24 °F -1 °F -35 °F (2013)
Degree Days  
Heating Degree Days 75    
Moisture  
Dew Point -20 °F    
Average Humidity 70    
Maximum Humidity 78    
Minimum Humidity 48    
Precipitation  
Precipitation 0.00 in - - ()
Snow  
Snow 0.00 in - - ()
Snow Depth 7.00 in    
Sea Level Pressure  
Sea Level Pressure 30.04 in    
Wind  
Wind Speed 0 mph (East)    
Max Wind Speed 4 mph    
Max Gust Speed -    
Visibility 8 miles    
Events      
Averages and records for this station are not official NWS values.
T = Trace of Precipitation, MM = Missing Value Source: NWS Daily Summary

Daily Weather History Graph

Daily Weather History Graph

Search for Another Location

Airport:

Trip Planner

Search our weather history database for the weather conditions in past years. The results will help you decide how hot, cold, wet, or windy it might be!

Date:

Astronomy

Nov. 20, 2012 Rise Set
Actual Time 9:45 AM AKST 3:26 PM AKST
Civil Twilight 8:38 AM AKST 4:33 PM AKST
Nautical Twilight 7:34 AM AKST 5:37 PM AKST
Astronomical Twilight 6:35 AM AKST 6:36 PM AKST
Moon 1:50 PM AKST (11/20) No Moon Set
Length of Visible Light 7h 54m
Length of Day
5h 41m
First Quarter, 53% of the Moon is Illuminated
Nov 20
First Quarter
Nov 28
Full
Dec 6
Last Quarter
Dec 12
New
Dec 19
First Quarter

Hourly Weather History & Observations

Time (AKST) Temp. Windchill Dew Point Humidity Pressure Visibility Wind Dir Wind Speed Gust Speed Precip Events Conditions
12:56 AM 3.9 °F - -11.9 °F 48% 30.03 in 10.0 mi Calm Calm - N/A   Overcast
1:56 AM 3.0 °F - -11.0 °F 52% 30.02 in 10.0 mi Calm Calm - N/A   Overcast
2:56 AM 3.0 °F - -11.0 °F 52% 30.02 in 10.0 mi Calm Calm - N/A   Overcast
3:56 AM -2.0 °F - -11.0 °F 66% 30.02 in 10.0 mi Calm Calm - N/A   Overcast
4:56 AM -2.0 °F - -11.9 °F 63% 30.02 in 10.0 mi Calm Calm - N/A   Overcast
5:56 AM -8.0 °F - -15.0 °F 71% 30.02 in 10.0 mi Calm Calm - N/A   Clear
6:55 AM -11.2 °F - -18.4 °F 70% 30.02 in 7.0 mi Calm Calm - N/A   Mostly Cloudy
7:55 AM -9.4 °F - -16.6 °F 71% 30.03 in 7.0 mi Calm Calm - N/A   Scattered Clouds
8:55 AM -14.8 °F - -20.2 °F 77% 30.03 in 7.0 mi Calm Calm - N/A   Scattered Clouds
9:55 AM -14.8 °F - -20.2 °F 77% 30.04 in 25.0 mi Calm Calm - N/A   Scattered Clouds
10:55 AM -16.6 °F - -23.8 °F 70% 30.04 in 25.0 mi Calm Calm - N/A   Scattered Clouds
11:55 AM -14.8 °F - -20.2 °F 77% 30.05 in 25.0 mi Calm Calm - N/A   Partly Cloudy
12:55 PM -9.4 °F - -18.4 °F 65% 30.04 in 25.0 mi Calm Calm - N/A   Partly Cloudy
1:55 PM -9.4 °F - -18.4 °F 65% 30.03 in 25.0 mi Calm Calm - N/A   Partly Cloudy
2:55 PM -9.4 °F - -16.6 °F 71% 30.03 in 25.0 mi Calm Calm - N/A   Partly Cloudy
3:55 PM -14.8 °F - -20.2 °F 77% 30.04 in 25.0 mi Calm Calm - N/A   Partly Cloudy
4:55 PM -14.8 °F - -20.2 °F 77% 30.04 in 25.0 mi Calm Calm - N/A   Partly Cloudy
5:55 PM -18.4 °F -28.9 °F -25.6 °F 70% 30.05 in 7.0 mi East 3.5 mph - N/A   Clear
6:55 PM -20.2 °F - -25.6 °F 76% 30.06 in 7.0 mi Calm Calm - N/A   Clear
7:55 PM -20.2 °F - -25.6 °F 76% 30.07 in 7.0 mi Calm Calm - N/A   Clear
8:55 PM -20.2 °F - -25.6 °F 76% 30.07 in 7.0 mi Calm Calm - N/A   Clear
9:55 PM -22.0 °F - -27.4 °F 76% 30.08 in 7.0 mi Calm Calm - N/A   Clear
10:21 PM -20.2 °F - -25.6 °F 76% 30.02 in 1.8 mi Calm Calm - N/A   Haze
10:29 PM -20.2 °F - -27.4 °F 69% 30.02 in - Calm Calm - N/A   Haze
10:36 PM -20.2 °F - -27.4 °F 69% 30.02 in 2.5 mi Calm Calm - N/A   Haze
10:56 PM -23.1 °F - -27.9 °F 78% 30.09 in 10.0 mi Calm Calm - N/A   Clear
11:56 PM -24.0 °F - -29.9 °F 74% 30.09 in 6.0 mi Calm Calm - N/A   Haze